SL-14 DEB, 44575

Orbit data source: Space-Track

SL-14 DEB, 44575 is space debris in LEO originally from a launch on Thu, 24 Jun 1993 UTC launched from the Plesetsk Missile And Space Complex (PKMTR). Debris objects in space refer to the collection of defunct objects orbiting the Earth. Examples of debris include non-operational satellites, rocket bodies, and fragments generated from explosions, collisions, or faulty payload assembly.

Loading next visibility...
SL-14 DEB details
Identifier
44575, 1993-038H
Orbit
LEO
Last TLE update1 day ago
Origin
Flag of CISVVKO VKS (CIS)
ManufacturerUnknown
MissionSpacecraft
Bus & MotorUnknown
MassUnknown
Launch date (UTC)
1993-06-24 (32 years ago)
Launch vehicleUnknown
Launch site
Plesetsk Missile And Space Complex (PKMTR)
Object type
Payload
Rocket body
Debris
Shape & HBRUnknown
Radar Cross SectionSmall (<0.1 m²)

Expand to show TLE details & history

TLE from 1 day ago
0 SL-14 DEB
1 44575U 93038H   25035.15514657  .00000038  00000-0  17198-3 0  9997
2 44575  82.5872 302.6998 0046029 357.6293   2.4569 12.54885238373119
Epoch: 2025-02-04T03:43Z
Definitive object data (Epoch: 2025-02-04T03:43:24.663Z)
Latitude0.00001°
Longitude112.28254°
Altitude1,410.869 km
Speed7.171 km/s
True Right ascension20h 10m 47s
True Declination0° 00' 00"
Sunlit
Object was in daylight at TLE epoch
Visualization TLE readout
Latitude77.76641°
Longitude148.18255°
Altitude1,454.132 km
Speed7.143 km/s
Apparent Right ascension22h 48m 38s
Apparent Declination28° 30' 20"
Sunlit
Object is in daylight
Visualization observer readout
Local Sidereal Time10:53:28
Azimuth1.142° NNE
Elevation-21.569°
Doppler factor1
Orbital elements
Apogee altitude1,477.451 km
Perigee altitude1,405.466 km
Semi-major axis7,819.595 km
Eccentricity0.0046029
Inclination82.5872°
RAAN302.6998°
Arg. of periapsis357.6293°
True anomaly2.47964°
Mean anomaly2.4569°
Eccentric anomaly2.46826°
Mean motion3.13882 °/min
BSTAR0.00017198
Orbital period114.69 mins
Loading maneuver chart data...
Loading historical data...
Loading historical data...
Loading historical data...
Loading historical data...
Loading historical data...
Loading historical data...
Loading historical data...

SL-14 DEB Visibility forecast

Observer location: undefined°, undefined

Span
Click to sort rows by Start time (UTC) header in descending order
Start Az.
Max El. time (UTC)
Max El. Az.
Max El.
End time (UTC)
End Az.
4 mins2025-02-05 16:15:54.654Z90.683° ESE2025-02-05 16:17:54.654Z76.15° E11.782°2025-02-05 16:19:54.654Z61.469° ENE
14 mins2025-02-05 18:05:54.654Z174.781° S2025-02-05 18:11:54.654Z111.303° ESE43.793°2025-02-05 18:19:54.654Z11.664° NNE
11 mins2025-02-05 20:03:54.654Z253.149° W2025-02-05 20:08:54.654Z295.67° NW20.867°2025-02-05 20:14:54.654Z342.3° N
13 mins2025-02-06 04:10:54.654Z16.158° NNE2025-02-06 04:16:54.654Z69.914° E28.057°2025-02-06 04:23:54.654Z129.047° SE
15 mins2025-02-06 06:05:54.654Z341.149° N2025-02-06 06:12:54.654Z271.681° WNW39.167°2025-02-06 06:20:54.654Z196.678° SSW
|